Regional Weather Roundup
Issued by NWS

Home | Current Version | Previous Version | Graphics & Text | Print | Product List | Glossary On
Versions: 1 2 3 4 5 6 7 8 9 10 11 12 13 14 15 16 17 18 19 20 21 22 23 24 25 26 27 28 29 30 31 32 33 34 35 36 37 38 39 40 41 42 43 44 45 46 47 48 49 50
000
ASUS43 KLOT 240906
RWRIL

ILLINOIS REGIONAL WEATHER ROUNDUP
NATIONAL WEATHER SERVICE CHICAGO/ROMEOVILLE IL
400 AM CDT FRI OCT 24 2014

NOTE: "FAIR" INDICATES FEW OR NO CLOUDS BELOW 12,000 FEET WITH NO
SIGNIFICANT WEATHER AND/OR OBSTRUCTIONS TO VISIBILITY.

* THESE STATIONS ARE NOT UNDER NWS QUALITY CONTROL. THEY ALSO MAY NOT
  REPORT WEATHER SUCH AS PRECIPITATION OR FOG.

ILZ001-002-007-009-015-016-024-241000-
NORTHWEST ILLINOIS

CITY           SKY/WX    TMP DP  RH WIND       PRES   REMARKS
MOLINE         CLOUDY    44  44 100 CALM      30.06S FOG
STERLING*        N/A     43  39  87 NW5       30.06R VSB 1/2
SAVANNA*       FOG       46  44  95 CALM      30.06S VSB 1/4
$$

ILZ003-004-008-010-011-017-018-241000-
NORTH CENTRAL ILLINOIS

CITY           SKY/WX    TMP DP  RH WIND       PRES   REMARKS
ROCKFORD       FOG       41  40  96 CALM      30.07R VSB 1/2
FREEPORT*      CLOUDY    50  49  97 CALM      30.07R FOG
ROCHELLE*      CLEAR     39  39  99 CALM      30.05R FOG
DE KALB*       CLOUDY    44  42  92 S5        30.05S
PERU*          CLEAR     47  44  89 CALM      30.05S
$$

ILZ005-006-012>014-019>023-241000-
NORTHEAST ILLINOIS

CITY           SKY/WX    TMP DP  RH WIND       PRES   REMARKS
CHICAGO-OHARE  CLOUDY    53  44  71 SW7       30.04S
CHICAGO-MIDWAY CLOUDY    55  45  68 SW6       30.05S
AURORA         MOCLDY    48  43  82 S3        30.05S
LANSING*       CLOUDY    51  45  78 CALM      30.05F
JOLIET*        CLOUDY    49  46  87 CALM      30.06R
WAUKEGAN       MOCLDY    46  44  93 W3        30.04R
DUPAGE AIRPORT CLOUDY    53  46  77 S3        30.04S
KANKAKEE*      CLOUDY    51  47  87 S3        30.07S
WHEELING       CLOUDY    55  44  66 SW3       30.06S
MORRIS*        MOCLDY    49  47  94 CALM      30.05R
ROMEOVILLE*    MOCLDY    48  44  84 S3        30.06R
NORTHERLY ISL    N/A     55  43  63 SW5         N/A
$$

LMZ740>746-241000-
SOUTHERN LAKE MICHIGAN

STATION/POSITION SKY/WX   TEMP    WIND        PRES    VSBY  WAVE
                          AIR SEA DIR/SP/G                  HT/PER
                          (F)     (DEG/KT/KT) (MB)    (MI)  (FT/S)
SOUTHERN BUOY              55 54  210/ 10/ 12 1017.3F         1/ 3
WAUKEGAN HARBOR            52     250/  5/  6   N/A
HARRISON CRIB              55     210/ 12/ 13   N/A
BURNHAM HARBOR             55     190/  3/  6   N/A
CALUMET HARBOR             54     210/  4/  5 1016.3R
MICHIGAN CITY              53     170/  7/  9   N/A
$$

ILZ025>027-034>036-040-047-049-050-058-095>099-241000-
WEST-CENTRAL ILLINOIS

CITY           SKY/WX    TMP DP  RH WIND       PRES   REMARKS
QUINCY         FOG       55  54  96 W7        30.07S VSB 1/2
GALESBURG*     CLEAR     46  45  97 W3        30.06R FOG
MACOMB*        MOCLDY    48  48  99 W6        30.08S FOG
JACKSONVILLE*  CLOUDY    55  50  83 SW3       30.07S
PITTSFIELD*    CLEAR     55  51  89 W5        30.08S
$$

ILZ028>032-037-038-041>044-048-051>054-059>061-241000-
CENTRAL ILLINOIS

CITY           SKY/WX    TMP DP  RH WIND       PRES   REMARKS
PONTIAC        CLEAR     46  44  95 CALM      30.06S
BLOOMINGTON    MOCLDY    49  46  89 SW5       30.07S
DECATUR        CLOUDY    54  47  77 SW3       30.08S
PEORIA         CLEAR     52  45  77 S3        30.06S
LACON*         CLEAR     46  44  91 CALM      30.05S
LINCOLN*       MOCLDY    51  47  84 CALM      30.05S
SPRINGFIELD    MOCLDY    51  45  79 CALM      30.07S
TAYLORVILLE    PTCLDY    46  43  87 SW5       30.07R
$$

ILZ033-039-045-046-055>057-062-063-241000-
EAST-CENTRAL ILLINOIS

CITY           SKY/WX    TMP DP  RH WIND       PRES   REMARKS
CHAMPAIGN      MOCLDY    50  47  89 S5        30.07S
DANVILLE*      RAIN      47  46  93 SE3       30.06S
RANTOUL*       CLOUDY    51  48  89 SE3       30.07S
MATTOON        CLOUDY    52  44  74 S7        30.07S
PARIS*         LGT RAIN  49  46  91 CALM      30.09F
$$

ILZ079-100>102-241000-
SOUTHWEST ILLINOIS

CITY           SKY/WX    TMP DP  RH WIND       PRES   REMARKS
ALTON          CLOUDY    51  47  88 CALM      30.08S
BELLEVILLE     MOCLDY    50  48  93 CALM      30.08S
CAHOKIA*       MOCLDY    52  48  86 CALM      30.09S FOG
SPARTA*        CLOUDY    51  47  84 CALM      30.10S
$$

ILZ064>066-069>071-074>076-080>082-084>086-088>090-092>094-241000-
SOUTH-CENTRAL ILLINOIS

CITY           SKY/WX    TMP DP  RH WIND       PRES   REMARKS
CARBONDALE     CLOUDY    47  44  90 SW3       30.11S
CAIRO*         FOG       43  40  90 CALM      30.13S VSB 1/2
EFFINGHAM*     CLOUDY    52  43  71 CALM      30.08F
MARION         PTCLDY    48  45  87 S3        30.11S
MT. VERNON     CLOUDY    48  45  87 CALM      30.10S
CENTRALIA*     CLOUDY    52  46  79 S3        30.09S
SALEM*         CLOUDY    52  49  89 CALM      30.09S
METROPOLIS*    FOG       45  45 100 CALM      30.11F VSB<1/4
$$

ILZ067-068-072-073-078-083-087-091-241000-
SOUTHEAST ILLINOIS

CITY           SKY/WX    TMP DP  RH WIND       PRES   REMARKS
LAWRENCEVILLE  CLOUDY    50  48  93 S3        30.10F
FLORA*         CLEAR     49  46  90 CALM      30.10S
FAIRFIELD*     CLOUDY    49  46  89 S3        30.09F
HARRISBURG*    CLOUDY    45  45 100 CALM      30.12S
ROBINSON*      CLOUDY    52  48  88 CALM      30.11S
CARMI*         CLOUDY    48  48  99 CALM      30.11R
$$

ABBREVIATIONS USED IN REMARKS
   TC - TEMPERATURE IN CELSIUS
  WCI - WIND CHILL INDEX
   HX - HEAT INDEX
  VSB - VISIBILITY
$$




USA.gov is the U.S. government's official web portal to all federal, state and local government web resources and services.